Location: Bukit Lungun
(2.6833°N, 113.9667°E)
Time: 14:58:40
(UTC+00:00)

Spelda - Pass Details

Date: 02 March 2021
Orbit: 387 x 22420 km, 5.1° (Epoch: 20 April)

Event Time Altitude Azimuth Distance (km) Brightness Sun altitude
Rises 11:59:15 0° 248° (WSW) 2,244 6.8 -20.9°
Reaches altitude 10° 12:00:59 10° 233° (SW) 1,472 5.3 -21.4°
Maximum altitude 12:03:27 27° 169° (SSE) 1,071 3.7 -22.0°
Enters shadow 12:03:40 27° 162° (SSE) 1,105 3.7 -22.0°
